[[{"header":{"parameterUnit":"m.s-1","parameterCategory":1,"la1":30.2991,"la2":30.254,"lo1":-89.0895,"lo2":-89.0444,"dy":0.0017,"dx":0.0017,"nx":28,"ny":28,"refTime":"2025-04-23T21:00:00:Z","depth":0,"parameterNumber":2,"parameterNumberName":"U-component_of_WINDS"},"data":[0,0,0,0,0,0,0,0,0,0,0,0,0,0,0,0,0,0,0,0,0,0,0,0,0,0,0,0,0,0,0,0,0,0,0,0,0,0,0,0,0,0,0,0,0,0,0,0,0,0,0,0,0,0,0,0,0,0,-3.4656,-3.4656,0,-3.4729,-3.473,-3.4731,-3.4709,-3.4707,-3.4705,-3.4704,-3.4778,-3.4781,-3.4785,0,0,0,0,0,0,0,0,0,0,0,0,0,-3.4495,-3.4498,-3.4655,-3.4656,-3.4657,-3.4729,-3.473,-3.4731,-3.4709,-3.4707,-3.4705,-3.4703,-3.4777,-3.4781,-3.4785,0,0,0,0,0,0,0,0,0,0,0,0,0,-3.4566,-3.4499,-3.4655,-3.4655,-3.4656,-3.4729,-3.473,-3.4732,-3.4709,-3.4707,-3.4705,-3.4702,-3.4776,-3.478,-3.4786,-3.4863,0,0,-3.4801,-3.4803,0,0,0,0,0,0,0,0,-3.4562,-3.4572,-3.4654,-3.4655,-3.4656,-3.4707,-3.4701,-3.4776,-3.471,-3.4689,-3.4704,-3.4701,-3.4756,-3.4763,-3.4782,-3.4867,-3.487,-3.4802,-3.4805,-3.4807,-3.4808,0,0,0,0,0,0,0,-3.4557,-3.4569,-3.4685,-3.4655,-3.4656,-3.4651,-3.4658,-3.4715,-3.4735,-3.469,-3.4689,-3.4698,-3.4756,-3.4777,-3.4783,-3.4871,-3.4801,-3.4806,-3.4809,-3.4811,-3.5025,-3.5028,0,0,0,0,0,0,-3.4552,-3.4565,-3.4682,-3.4687,-3.4602,-3.4656,-3.4664,-3.4693,-3.4734,-3.4738,-3.47,-3.4697,-3.4769,-3.4777,-3.4786,-3.4879,-3.4807,-3.4812,-3.4815,-3.5023,-3.5026,-3.5029,0,0,0,0,0,0,-3.4548,-3.4562,-3.4679,-3.4626,-3.464,-3.4661,-3.4694,-3.4696,-3.4716,-3.4741,-3.4744,-3.4717,-3.4768,-3.4779,-3.4845,-3.4882,-3.4814,-3.4819,-3.5019,-3.5024,-3.5027,-3.5067,0,0,0,0,0,0,-3.4544,-3.4561,-3.4591,-3.4626,-3.4643,-3.4737,-3.4696,-3.4699,-3.4725,-3.4722,-3.4758,-3.4762,-3.4767,-3.4837,-3.485,-3.4887,-3.4823,-3.5016,-3.5021,-3.5026,-3.5063,-3.5072,-3.508,0,0,0,0,0,-3.4538,-3.4599,-3.4592,-3.4607,-3.468,-3.4739,-3.4748,-3.4753,-3.4728,-3.4758,-3.4775,-3.4761,-3.4876,-3.4844,-3.4858,-3.4898,-3.5014,-3.502,-3.5026,-3.5059,-3.507,-3.508,0,0,0,0,0,0,-3.4565,-3.4603,-3.4597,-3.467,-3.4702,-3.4735,-3.4772,-3.4765,-3.4803,-3.4798,-3.4802,-3.4811,-3.4878,-3.4895,-3.4859,-3.4976,-3.4941,-3.495,-3.4962,-3.4973,-3.4982,-3.4975,-3.4827,0,0,0,0,0,-3.4581,-3.4625,-3.4656,-3.4718,-3.4734,-3.4751,-3.4777,-3.4778,-3.481,-3.4823,-3.4844,-3.4876,-3.4919,-3.4948,-3.4989,-3.5066,-3.5074,-3.5101,-3.511,-3.5117,-3.5123,-3.5166,-3.5178,-3.5048,-3.5048,-3.5048,0,0,-3.4611,-3.4637,-3.4665,-3.4724,-3.4749,-3.4795,-3.4762,-3.4812,-3.4846,-3.4831,-3.4894,-3.4911,-3.4947,-3.5019,-3.5052,-3.5035,-3.5162,-3.5124,-3.513,-3.5133,-3.5173,-3.5185,-3.5196,-3.5052,-3.5051,-3.5051,0,0,-3.4689,-3.4715,-3.4769,-3.4795,-3.4833,-3.4844,-3.4858,-3.4893,-3.4904,-3.4968,-3.4958,-3.4999,-3.5074,-3.51,-3.5123,-3.5215,-3.5203,-3.5229,-3.5273,-3.5314,-3.5324,-3.5334,-3.5365,-3.5377,-3.5236,-3.5236,-3.5236,0,-3.4722,-3.4791,-3.4798,-3.4849,-3.4875,-3.4866,-3.4921,-3.4946,-3.4995,-3.5014,-3.4995,-3.509,-3.5113,-3.5191,-3.5214,-3.5233,-3.5248,-3.5223,-3.5323,-3.5332,-3.534,-3.5371,-3.5383,-3.5239,-3.5239,-3.5238,-3.5238,0,-3.4829,-3.4878,-3.4917,-3.4966,-3.4998,-3.5051,-3.5065,-3.5097,-3.5097,-3.511,-3.5176,-3.5205,-3.5252,-3.5271,-3.5271,-3.535,-3.5338,-3.5321,-3.5286,-3.5355,-3.5384,-3.5396,-3.5243,-3.5242,-3.5241,-3.524,0,0,-3.4923,-3.4978,-3.4992,-3.5014,-3.5057,-3.5095,-3.5148,-3.5195,-3.5222,-3.5257,-3.5302,-3.5367,-3.5352,-3.5378,-3.5382,-3.5418,-3.5489,-3.5397,-3.5398,-3.5411,-3.5577,-3.5587,-3.5601,-3.5483,-3.5485,-3.5487,-3.5573,0,-3.5004,-3.5097,-3.5107,-3.519,-3.5235,-3.5229,-3.5275,-3.5307,-3.5322,-3.5362,-3.5379,-3.5425,-3.5402,-3.5418,-3.5454,-3.5472,-3.5522,-3.5467,-3.5523,-3.5525,-3.5511,-3.5616,-3.5627,-3.5706,-3.5585,-3.5587,-3.5588,0,-3.5109,-3.5149,-3.5238,-3.5276,-3.5295,-3.5337,-3.5381,-3.5421,-3.5457,-3.5465,-3.5497,-3.5496,-3.5551,-3.5517,-3.5593,-3.5555,-3.5579,-3.5592,-3.5596,-3.5598,-3.5558,-3.5619,-3.5732,-3.5743,-3.5606,-3.5604,-3.5603,0,-3.5167,-3.5243,-3.5306,-3.5326,-3.5372,-3.5402,-3.5422,-3.5457,-3.5485,-3.5525,-3.5543,-3.5589,-3.5613,-3.5649,-3.566,-3.5634,-3.5736,-3.5702,-3.5743,-3.5743,-3.5762,-3.576,-3.5877,-3.5782,-3.5782,-3.5782,-3.5782,0,-3.5254,-3.5308,-3.5333,-3.5371,-3.5432,-3.5443,-3.5503,-3.5522,-3.5553,-3.5595,-3.5593,-3.5633,-3.5647,-3.5689,-3.5699,-3.576,-3.5772,-3.578,-3.5781,-3.5778,-3.5777,-3.5792,-3.5786,-3.5785,-3.5784,-3.5784,-3.5783,0,-3.5327,-3.5346,-3.5414,-3.5453,-3.5465,-3.5508,-3.5541,-3.5579,-3.5595,-3.5648,-3.5661,-3.5686,-3.5736,-3.5752,-3.5812,-3.5819,-3.589,-3.5888,-3.5877,-3.5877,-3.5916,-3.5912,-3.6045,-3.6063,-3.5958,-3.5959,-3.596,0,-3.538,-3.5422,-3.5467,-3.5495,-3.5517,-3.5563,-3.5593,-3.5606,-3.5637,-3.5683,-3.5715,-3.5765,-3.5805,-3.5885,-3.5908,-3.5954,-3.5952,-3.5996,-3.5958,-3.5955,-3.595,-3.5946,-3.595,-3.6001,-3.6002,-3.6003,-3.6004,0,-3.5472,-3.548,-3.5522,-3.5569,-3.5605,-3.5642,-3.5678,-3.5702,-3.5721,-3.5756,-3.5807,-3.5839,-3.5901,-3.595,-3.5998,-3.6019,-3.6015,-3.6017,-3.6028,-3.6024,-3.6015,-3.6019,-3.5894,-3.6012,-3.6011,-3.6011,-3.601,-3.601,-3.5535,-3.5572,-3.5609,-3.5658,-3.5687,-3.5721,-3.5758,-3.578,-3.5824,-3.5875,-3.5882,-3.5937,-3.5974,-3.6038,-3.6062,-3.6106,-3.6093,-3.611,-3.6114,-3.6117,-3.612,-3.6011,-3.6115,-3.6115,-3.6114,-3.6114,-3.6114,0,-3.5625,-3.565,-3.5694,-3.5745,-3.5784,-3.5779,-3.5819,-3.5851,-3.59,-3.5936,-3.5976,-3.6036,-3.6084,-3.6113,-3.6161,-3.6191,-3.619,-3.6203,-3.6199,-3.6204,-3.6129,-3.6113,-3.6203,-3.6203,-3.6203,-3.6203,-3.6203,-3.6203,-3.5676,-3.5738,-3.5751,-3.5828,-3.5852,-3.5907,-3.593,-3.5962,-3.5991,-3.6058,-3.6098,-3.6117,-3.615,-3.6202,-3.6246,-3.6254,-3.6271,-3.6285,-3.629,-3.6219,-3.6209,-3.6201,-3.6186,-3.6289,-3.6289,-3.6361,-3.6362,-3.6363]},{"header":{"parameterUnit":"m.s-1","parameterCategory":1,"la1":30.2991,"la2":30.254,"lo1":-89.0895,"lo2":-89.0444,"dy":0.0017,"dx":0.0017,"nx":28,"ny":28,"refTime":"2025-04-23T21:00:00:Z","depth":0,"parameterNumber":3,"parameterNumberName":"V-component_of_WINDS"},"data":[0,0,0,0,0,0,0,0,0,0,0,0,0,0,0,0,0,0,0,0,0,0,0,0,0,0,0,0,0,0,0,0,0,0,0,0,0,0,0,0,0,0,0,0,0,0,0,0,0,0,0,0,0,0,0,0,0,0,1.7204,1.7205,0,1.7257,1.7258,1.7258,1.7268,1.7267,1.7267,1.7267,1.732,1.7322,1.7323,0,0,0,0,0,0,0,0,0,0,0,0,0,1.7112,1.7113,1.7204,1.7205,1.7205,1.7257,1.7258,1.7258,1.7268,1.7267,1.7267,1.7266,1.7319,1.7321,1.7323,0,0,0,0,0,0,0,0,0,0,0,0,0,1.7157,1.7114,1.7204,1.7216,1.7218,1.7257,1.7258,1.7259,1.7268,1.7267,1.7267,1.7266,1.7318,1.7321,1.7324,1.7354,0,0,1.7332,1.7333,0,0,0,0,0,0,0,0,1.7154,1.716,1.7214,1.7215,1.7217,1.7255,1.7245,1.729,1.7268,1.7249,1.7267,1.7266,1.7299,1.7303,1.7314,1.7356,1.7358,1.7332,1.7334,1.7335,1.7336,0,0,0,0,0,0,0,1.7151,1.7158,1.7225,1.7215,1.7217,1.722,1.7225,1.7253,1.7277,1.7251,1.7251,1.7258,1.73,1.7312,1.7316,1.7359,1.7332,1.7335,1.7336,1.7337,1.7431,1.7432,0,0,0,0,0,0,1.7146,1.7155,1.7223,1.7226,1.7184,1.7222,1.7228,1.7244,1.7277,1.7281,1.7258,1.7258,1.7307,1.7312,1.7318,1.7357,1.7335,1.7338,1.7339,1.743,1.7431,1.7432,0,0,0,0,0,0,1.7144,1.7152,1.7221,1.7191,1.72,1.7224,1.7241,1.7245,1.7257,1.7282,1.7286,1.7266,1.7307,1.7314,1.7345,1.7358,1.7339,1.7341,1.7429,1.7431,1.7432,1.7433,0,0,0,0,0,0,1.7141,1.7151,1.7162,1.7191,1.7202,1.7248,1.7242,1.7247,1.7262,1.7262,1.7291,1.7295,1.7307,1.7341,1.7348,1.7362,1.7344,1.7428,1.743,1.7431,1.7432,1.7435,1.7436,0,0,0,0,0,1.7138,1.716,1.7163,1.7171,1.7216,1.7248,1.7254,1.7268,1.7263,1.7275,1.7292,1.7294,1.7356,1.7344,1.7352,1.7367,1.7427,1.7429,1.7431,1.7431,1.7434,1.7436,0,0,0,0,0,0,1.713,1.7164,1.7167,1.7199,1.7221,1.725,1.7265,1.727,1.7293,1.7292,1.7308,1.7315,1.7346,1.7359,1.7346,1.7399,1.7391,1.7395,1.7389,1.7392,1.7394,1.739,1.7346,0,0,0,0,0,1.7132,1.7156,1.7183,1.7209,1.722,1.7241,1.7255,1.7264,1.7287,1.7296,1.7315,1.7337,1.7362,1.7377,1.7401,1.7435,1.7442,1.7449,1.7451,1.7452,1.7455,1.7476,1.748,1.7438,1.7438,1.7438,0,0,1.7137,1.7158,1.7171,1.7208,1.7226,1.725,1.7248,1.7273,1.7292,1.73,1.7331,1.7346,1.7372,1.7405,1.7421,1.7417,1.7469,1.7455,1.7456,1.7458,1.7478,1.7482,1.7486,1.744,1.7439,1.7439,0,0,1.7157,1.7175,1.72,1.7218,1.7246,1.726,1.7266,1.7295,1.7305,1.7337,1.7345,1.7367,1.7408,1.7427,1.7442,1.7474,1.7477,1.7481,1.7492,1.7512,1.7515,1.7518,1.7531,1.7535,1.7484,1.7484,1.7484,0,1.7159,1.7196,1.7211,1.7237,1.7254,1.7264,1.7289,1.7306,1.734,1.7352,1.7348,1.7402,1.742,1.7459,1.7467,1.7478,1.7486,1.7477,1.7513,1.7517,1.752,1.7532,1.7536,1.7484,1.7484,1.7484,1.7484,0,1.7198,1.7224,1.724,1.7274,1.7292,1.7318,1.7338,1.7355,1.7363,1.7378,1.7411,1.7434,1.7463,1.7473,1.748,1.7514,1.7511,1.751,1.7503,1.7524,1.7535,1.754,1.7484,1.7484,1.7484,1.7484,0,0,1.7214,1.7258,1.7263,1.728,1.7313,1.7333,1.7359,1.7389,1.7405,1.7428,1.7452,1.7488,1.7488,1.7505,1.7515,1.7533,1.7558,1.753,1.7531,1.7536,1.7598,1.7599,1.7604,1.7561,1.7562,1.7563,1.7597,0,1.7239,1.7287,1.7303,1.7343,1.7368,1.7379,1.7402,1.7425,1.744,1.7464,1.7481,1.7507,1.7504,1.7515,1.7533,1.7551,1.7571,1.7549,1.7584,1.7585,1.7578,1.761,1.7611,1.7641,1.7601,1.7602,1.7602,0,1.7274,1.73,1.7343,1.7375,1.7386,1.7407,1.7437,1.7459,1.7486,1.7496,1.7517,1.7526,1.7555,1.7547,1.7588,1.7573,1.7588,1.76,1.7601,1.7605,1.7595,1.7616,1.7651,1.7656,1.7609,1.7609,1.7608,0,1.7283,1.7329,1.7361,1.7374,1.7412,1.7427,1.7443,1.7469,1.7487,1.7514,1.7526,1.7555,1.7571,1.7594,1.7611,1.7603,1.7651,1.7644,1.7661,1.7661,1.7671,1.767,1.771,1.768,1.768,1.768,1.7679,0,1.731,1.7336,1.7366,1.7385,1.7416,1.7434,1.7464,1.7481,1.7505,1.7529,1.754,1.7562,1.7583,1.7609,1.7623,1.7656,1.7663,1.7672,1.7676,1.7671,1.767,1.7682,1.768,1.7681,1.768,1.768,1.768,0,1.7324,1.7345,1.7381,1.7415,1.7424,1.7445,1.7474,1.7494,1.7511,1.7541,1.7549,1.7575,1.7606,1.7626,1.7664,1.7674,1.7711,1.7713,1.7702,1.7703,1.772,1.7719,1.7769,1.7777,1.7741,1.7741,1.7742,0,1.734,1.7361,1.7398,1.7415,1.7432,1.7459,1.7478,1.7498,1.7517,1.7551,1.7567,1.7599,1.7626,1.7675,1.7697,1.7727,1.7731,1.7747,1.7735,1.7732,1.7733,1.7732,1.7735,1.7748,1.7749,1.7749,1.7749,0,1.7367,1.7377,1.7404,1.7435,1.7458,1.7483,1.7509,1.7522,1.7547,1.7568,1.76,1.7621,1.7662,1.7694,1.7727,1.7744,1.7751,1.7753,1.7759,1.7755,1.7748,1.7753,1.7707,1.7751,1.7751,1.7751,1.7751,1.7751,1.7384,1.7403,1.7433,1.7463,1.7485,1.7509,1.7531,1.7551,1.7578,1.7613,1.7624,1.7658,1.7686,1.7732,1.775,1.7777,1.7775,1.7783,1.7786,1.7787,1.7788,1.7744,1.7783,1.7783,1.7783,1.7783,1.7783,0,1.7412,1.7432,1.746,1.7496,1.7521,1.7526,1.7555,1.7575,1.7605,1.7632,1.7659,1.7697,1.7728,1.7754,1.7787,1.7804,1.7809,1.7812,1.7812,1.7816,1.7787,1.778,1.7809,1.7809,1.7809,1.7809,1.7809,1.7809,1.743,1.7464,1.7478,1.7524,1.7544,1.7578,1.7595,1.7618,1.7639,1.7681,1.7708,1.7725,1.7752,1.7788,1.7817,1.7824,1.7836,1.784,1.7847,1.782,1.7818,1.7815,1.7808,1.7842,1.7842,1.7874,1.7874,1.7874]}]]